AC2EV Weather Reports


Display with metric or nautical units.
time (UTC)temp
F
wind
direction
speed
MPH
gust
MPH
rain 1hr
in
rain 24hr
in
rain mn
in
humidity
%
barometer
mb
20260510095502 46 223 0.0 0.0 0.01 0.16 0.04 88 1009.7
20260510095001 46 223 0.0 0.0 0.01 0.16 0.04 88 1009.6
20260510094502 46 223 0.0 0.0 0.01 0.16 0.04 88 1009.5
20260510094001 46 223 0.0 0.0 0.01 0.16 0.04 88 1009.0
20260510093502 46 223 0.0 0.0 0.02 0.16 0.04 87 1009.0
20260510093001 47 223 0.0 0.0 0.02 0.16 0.04 87 1009.1
20260510092503 47 223 0.0 0.0 0.02 0.16 0.04 87 1009.3
20260510092002 47 223 0.0 0.0 0.02 0.16 0.04 87 1009.2
20260510091503 47 223 0.0 0.0 0.02 0.16 0.04 87 1009.1
20260510071502 51 203 0.0 0.0 0.00 0.12 0.00 89 1007.7
20260510071001 51 203 0.0 0.0 0.00 0.12 0.00 89 1007.7
20260510070501 51 203 0.0 0.0 0.00 0.12 0.00 89 1007.5
20260510070001 51 203 0.0 0.0 0.00 0.12 0.00 89 1007.5
20260510065502 52 203 0.0 0.0 0.00 0.12 0.00 89 1007.5
20260510065001 52 203 0.0 0.0 0.00 0.12 0.00 89 1007.2
20260510064501 52 203 0.0 0.0 0.00 0.12 0.00 89 1007.2
20260510064001 52 203 0.0 0.0 0.00 0.12 0.00 89 1007.3
20260510063501 52 203 0.0 0.0 0.00 0.12 0.00 89 1007.3
20260510063001 52 203 0.0 0.0 0.00 0.12 0.00 89 1007.4
20260510062502 52 203 0.0 0.0 0.00 0.12 0.00 88 1007.4
20260510062002 52 203 0.0 0.0 0.00 0.12 0.00 88 1007.3
20260510061501 52 203 0.0 0.0 0.00 0.12 0.00 88 1007.3
20260510061002 52 203 0.0 0.0 0.00 0.12 0.00 88 1007.2
20260510060501 52 203 0.0 0.0 0.00 0.12 0.00 88 1007.1
20260510060001 51 203 0.0 0.0 0.00 0.12 0.00 88 1007.0
20260510055500 51 203 0.0 0.0 0.00 0.12 0.00 88 1007.0
20260510055001 51 203 0.0 0.0 0.00 0.12 0.00 88 1006.9
20260510054501 51 200 0.0 0.0 0.00 0.12 0.00 88 1006.7
20260510054001 51 200 0.0 0.0 0.00 0.12 0.00 88 1006.8
20260510053501 51 200 0.0 0.0 0.00 0.12 0.00 88 1006.7
20260510053001 51 200 0.0 0.0 0.00 0.12 0.00 88 1006.8
20260510052501 51 200 0.0 0.0 0.00 0.12 0.00 88 1006.8
20260510052006 51 200 0.0 0.0 0.00 0.12 0.00 88 1006.8
20260510051500 52 200 0.0 0.0 0.00 0.12 0.00 87 1006.6
20260510051002 52 200 0.0 0.0 0.00 0.12 0.00 87 1006.4
20260510050501 52 200 0.0 0.0 0.00 0.12 0.00 87 1006.3
20260510050002 52 200 0.0 0.0 0.00 0.12 0.00 87 1006.1
20260510045502 52 200 0.0 0.0 0.00 0.12 0.00 87 1006.1
20260510045003 52 200 0.0 0.0 0.00 0.12 0.00 87 1006.1
20260510044502 52 202 0.0 0.0 0.00 0.12 0.00 86 1006.1
20260510044003 52 202 0.0 0.0 0.00 0.12 0.00 86 1006.0
20260510043502 52 202 0.0 0.0 0.00 0.12 0.00 86 1006.1
20260510043002 53 202 0.0 0.0 0.00 0.12 0.00 86 1006.0
20260510042501 53 202 0.0 0.0 0.00 0.12 0.00 86 1006.0
20260510041958 53 202 0.0 0.0 0.00 0.12 0.00 86 1005.9
20260510041453 53 203 0.0 0.0 0.00 0.12 0.00 86 1005.9
20260510040946 53 203 0.0 0.0 0.00 0.12 0.00 86 1005.9
20260510040440 53 202 0.0 0.0 0.00 0.12 0.00 86 1005.8
20260510035939 53 202 0.0 0.0 0.00 0.12 0.12 86 1005.9
20260510035432 53 202 0.0 0.0 0.00 0.12 0.12 86 1005.8
20260510034954 53 204 0.0 0.0 0.00 0.12 0.12 86 1005.8
20260510034432 53 204 0.0 0.0 0.00 0.12 0.12 86 1005.9
20260510033932 53 204 0.0 0.0 0.00 0.12 0.12 86 1005.8
20260510033432 53 204 0.0 0.0 0.00 0.12 0.12 86 1005.7
20260510032932 53 204 0.0 0.0 0.00 0.12 0.12 86 1005.6
20260510032431 53 204 0.0 0.0 0.00 0.12 0.12 86 1005.4
20260510031932 53 203 0.0 0.0 0.00 0.12 0.12 86 1005.3
20260510031432 53 202 0.0 0.0 0.00 0.12 0.12 86 1005.3
20260510030932 53 201 0.0 0.0 0.00 0.12 0.12 86 1005.3
20260510030431 53 201 0.0 1.0 0.00 0.12 0.12 86 1005.2
20260510025931 53 200 0.0 1.0 0.00 0.12 0.12 86 1005.2
20260510025432 53 198 0.0 1.0 0.00 0.12 0.12 86 1005.1
20260510024932 53 192 0.0 1.0 0.00 0.12 0.12 86 1005.0
20260510024432 53 200 0.0 1.0 0.00 0.12 0.12 86 1005.0
20260510023932 53 200 0.0 0.0 0.00 0.12 0.12 86 1005.0
20260510023431 53 188 0.0 0.0 0.00 0.12 0.12 86 1004.9
20260510022925 53 200 0.0 0.0 0.00 0.12 0.12 86 1004.9
20260510022427 53 227 0.0 0.0 0.00 0.12 0.12 87 1004.9
20260510021944 53 235 0.0 3.0 0.00 0.12 0.12 87 1005.0
20260510021413 53 193 0.0 3.0 0.00 0.12 0.12 87 1004.9
20260510020914 53 222 0.0 0.0 0.00 0.12 0.12 87 1004.9
20260510020413 53 211 0.0 0.0 0.00 0.12 0.12 87 1004.8
20260510015911 53 209 0.0 1.0 0.00 0.12 0.12 87 1004.5
20260510015409 53 217 0.0 4.0 0.00 0.12 0.12 87 1004.4
20260510014909 53 199 0.0 4.0 0.00 0.12 0.12 87 1004.5
20260510014409 53 207 0.0 3.0 0.00 0.12 0.12 87 1004.6
20260510013907 53 199 0.0 3.0 0.00 0.12 0.12 87 1004.6
20260510013416 53 215 0.0 1.0 0.01 0.12 0.12 87 1004.6
20260510012943 53 209 0.0 2.0 0.02 0.12 0.12 87 1004.5
20260510012402 53 211 0.0 2.0 0.02 0.12 0.12 86 1004.4
20260510011901 54 190 0.0 2.0 0.03 0.12 0.12 86 1004.1
20260510011401 54 238 0.0 6.0 0.04 0.12 0.12 86 1004.1
20260510010902 54 223 1.0 9.0 0.04 0.12 0.12 86 1004.2
20260510010401 54 229 1.0 10.0 0.05 0.12 0.12 86 1004.1
20260510005901 53 210 0.0 10.0 0.11 0.12 0.12 87 1004.1
20260510005425 53 190 1.0 10.0 0.12 0.12 0.12 87 1004.0
20260510004942 53 180 1.0 10.0 0.12 0.12 0.12 88 1004.0
20260510004400 53 249 1.0 7.0 0.12 0.12 0.12 88 1003.9
20260510003901 53 228 0.0 10.0 0.12 0.12 0.12 88 1004.5
20260510003401 53 236 0.0 10.0 0.11 0.11 0.11 88 1004.8
20260510002901 53 263 0.0 4.0 0.10 0.10 0.10 88 1004.7
20260510002423 53 281 0.0 6.0 0.10 0.10 0.10 88 1004.7
20260510001948 53 255 0.0 11.0 0.09 0.09 0.09 87 1004.7
20260510001401 53 294 1.0 11.0 0.08 0.08 0.08 86 1004.6
20260510000902 54 235 1.0 10.0 0.08 0.08 0.08 84 1004.7
20260510000401 55 204 1.0 19.0 0.07 0.07 0.06 79 1004.6
20260509235901 60 290 1.0 19.0 0.01 0.01 0.00 64 1004.7
20260509235401 65 278 0.0 2.0 0.00 0.00 0.00 57 1004.2
20260509234900 65 189 0.0 0.0 0.00 0.00 0.00 55 1002.5
20260509234400 65 189 0.0 0.0 0.00 0.00 0.00 55 1002.4
20260509233902 66 189 0.0 0.0 0.00 0.00 0.00 54 1002.2
20260509233401 66 191 0.0 0.0 0.00 0.00 0.00 54 1002.2
20260509232902 66 134 0.0 1.0 0.00 0.00 0.00 54 1001.9
20260509232401 66 165 0.0 1.0 0.00 0.00 0.00 53 1001.9
20260509231901 66 148 0.0 1.0 0.00 0.00 0.00 52 1001.9
20260509231401 66 146 0.0 0.0 0.00 0.00 0.00 53 1001.8
20260509230943 66 146 0.0 0.0 0.00 0.00 0.00 52 1001.8
20260509230401 66 188 0.0 0.0 0.00 0.00 0.00 52 1002.1
20260509225903 66 150 0.0 0.0 0.00 0.00 0.00 52 1002.2
20260509225401 67 223 0.0 2.0 0.00 0.00 0.00 51 1002.2
20260509224902 67 209 0.0 2.0 0.00 0.00 0.00 52 1002.2
20260509224401 67 148 0.0 6.0 0.00 0.00 0.00 51 1002.2
20260509223901 67 225 0.0 6.0 0.00 0.00 0.00 51 1002.2
20260509223401 67 184 0.0 7.0 0.00 0.00 0.00 51 1002.2
20260509222859 67 170 0.0 7.0 0.00 0.00 0.00 50 1002.4
20260509222354 67 198 0.0 6.0 0.00 0.00 0.00 50 1002.5
20260509221849 67 223 0.0 5.0 0.00 0.00 0.00 51 1002.5
20260509221342 67 200 0.0 5.0 0.00 0.00 0.00 49 1002.5
20260509220837 67 195 0.0 5.0 0.00 0.00 0.00 50 1002.4
20260509220329 67 209 0.0 5.0 0.00 0.00 0.00 51 1002.4
20260509215824 67 169 0.0 7.0 0.00 0.00 0.00 50 1002.3
20260509215317 67 229 1.0 13.0 0.00 0.00 0.00 50 1002.3
20260509214810 67 249 1.0 13.0 0.00 0.00 0.00 50 1002.3
20260509214310 67 179 0.0 8.0 0.00 0.00 0.00 51 1002.4
20260509213944 67 205 1.0 11.0 0.00 0.00 0.00 51 1002.4
20260509213309 67 197 1.0 11.0 0.00 0.00 0.00 50 1002.3
20260509212809 67 202 1.0 12.0 0.00 0.00 0.00 52 1002.4
20260509212306 68 200 1.0 12.0 0.00 0.00 0.00 52 1002.4
20260509211941 68 227 1.0 8.0 0.00 0.00 0.00 52 1002.3
20260509211306 68 234 1.0 8.0 0.00 0.00 0.00 52 1002.3
20260509210804 67 155 2.0 11.0 0.00 0.00 0.00 52 1002.3
20260509210304 68 211 1.0 11.0 0.00 0.00 0.00 51 1002.2
20260509205805 68 223 1.0 10.0 0.00 0.00 0.00 52 1002.1
20260509205306 68 240 1.0 13.0 0.00 0.00 0.00 51 1002.1
20260509204944 69 154 2.0 13.0 0.00 0.00 0.00 50 1002.2
20260509204302 69 182 1.0 11.0 0.00 0.00 0.00 49 1002.1
20260509203801 69 194 0.0 9.0 0.00 0.00 0.00 51 1002.1
20260509203302 69 180 0.0 5.0 0.00 0.00 0.00 51 1002.1
20260509202800 70 213 0.0 8.0 0.00 0.00 0.00 50 1002.3
20260509202306 69 178 1.0 16.0 0.00 0.00 0.00 52 1002.4
20260509201942 69 175 1.0 16.0 0.00 0.00 0.00 51 1002.4
20260509201302 69 176 1.0 11.0 0.00 0.00 0.00 52 1002.5
20260509200801 69 235 1.0 12.0 0.00 0.00 0.00 52 1002.5
20260509200301 69 228 1.0 12.0 0.00 0.00 0.00 51 1002.6
20260509195801 69 194 1.0 11.0 0.00 0.00 0.00 51 1002.7
20260509195306 69 195 1.0 8.0 0.00 0.00 0.00 51 1002.8
20260509194801 69 194 0.0 8.0 0.00 0.00 0.00 50 1002.8
20260509194302 68 194 0.0 8.0 0.00 0.00 0.00 54 1003.0
20260509193802 68 194 0.0 8.0 0.00 0.00 0.00 50 1003.1
20260509193301 68 191 0.0 6.0 0.00 0.00 0.00 53 1003.2
20260509192801 68 192 0.0 10.0 0.00 0.00 0.00 53 1003.1
20260509192305 68 192 1.0 10.0 0.00 0.00 0.00 53 1003.1
20260509191801 68 198 0.0 8.0 0.00 0.00 0.00 53 1003.1
20260509191302 68 200 0.0 8.0 0.00 0.00 0.00 51 1003.1
20260509190934 68 194 0.0 6.0 0.00 0.00 0.00 47 1003.0
20260509190301 68 197 0.0 6.0 0.00 0.00 0.00 44 1003.0
20260509185801 68 196 0.0 5.0 0.00 0.00 0.00 50 1003.2
20260509185306 68 196 1.0 8.0 0.00 0.00 0.00 48 1003.3
20260509184801 69 195 1.0 8.0 0.00 0.00 0.00 47 1003.4
20260509184302 68 190 1.0 12.0 0.00 0.00 0.00 48 1003.5
20260509183932 68 193 0.0 12.0 0.00 0.00 0.00 48 1003.5
20260509183302 67 158 0.0 5.0 0.00 0.00 0.00 50 1003.7
20260509182801 67 158 0.0 5.0 0.00 0.00 0.00 50 1003.7
20260509182301 66 158 0.0 7.0 0.00 0.00 0.00 48 1003.8
20260509181801 65 157 0.0 7.0 0.00 0.00 0.00 55 1003.9
20260509181302 64 128 0.0 0.0 0.00 0.00 0.00 65 1004.0
20260509180801 63 128 0.0 0.0 0.00 0.00 0.00 64 1004.1
20260509180301 63 128 0.0 0.0 0.00 0.00 0.00 63 1004.3
20260509175801 64 128 0.0 0.0 0.00 0.00 0.00 64 1004.3
20260509175301 64 128 0.0 0.0 0.00 0.00 0.00 63 1004.3
20260509174801 63 128 0.0 2.0 0.00 0.00 0.00 65 1004.3
20260509174302 62 128 0.0 2.0 0.00 0.00 0.00 65 1004.2
20260509173933 62 136 0.0 0.0 0.00 0.00 0.00 64 1004.4
20260509173301 63 136 0.0 0.0 0.00 0.00 0.00 62 1004.4
20260509172756 64 137 0.0 0.0 0.00 0.00 0.00 62 1004.5
20260509172249 66 137 0.0 0.0 0.00 0.00 0.00 59 1004.4
20260509171744 66 137 0.0 2.0 0.00 0.00 0.00 58 1004.4
20260509171238 67 137 0.0 2.0 0.00 0.00 0.00 57 1004.5
20260509170736 66 136 0.0 2.0 0.00 0.00 0.00 57 1004.6
20260509170236 65 136 0.0 2.0 0.00 0.00 0.00 59 1004.6
20260509165234 64 136 0.0 0.0 0.00 0.00 0.00 60 1004.7
20260509164734 64 136 0.0 0.0 0.00 0.00 0.00 61 1004.7
20260509164234 64 136 0.0 0.0 0.00 0.00 0.00 60 1004.8
20260509163234 64 136 0.0 4.0 0.00 0.00 0.00 62 1005.0
20260509162235 65 134 0.0 1.0 0.00 0.00 0.00 62 1005.2
20260509161230 63 134 0.0 2.0 0.00 0.00 0.00 65 1005.5
20260509160230 63 134 0.0 1.0 0.00 0.00 0.00 62 1005.6
20260509155231 62 134 0.0 3.0 0.00 0.00 0.00 65 1005.6
20260509154230 63 132 0.0 0.0 0.00 0.00 0.00 62 1005.7
20260509153230 64 131 0.0 7.0 0.00 0.00 0.00 62 1005.7
20260509152729 63 130 0.0 0.0 0.00 0.00 0.00 63 1005.8
20260509152229 63 130 0.0 0.0 0.00 0.00 0.00 65 1005.9
20260509151230 63 130 0.0 0.0 0.00 0.00 0.00 64 1006.0
20260509150229 63 130 0.0 1.0 0.00 0.00 0.00 64 1006.0
20260509145230 62 130 0.0 1.0 0.00 0.00 0.00 68 1006.0
20260509144229 60 130 0.0 1.0 0.00 0.00 0.00 69 1006.2
20260509143730 60 134 0.0 1.0 0.00 0.00 0.00 68 1006.2
20260509143230 60 132 0.0 1.0 0.00 0.00 0.00 68 1006.3
20260509142919 60 131 0.0 1.0 0.00 0.00 0.00 69 1006.3
20260509142229 60 0 0.0 0.0 0.00 0.00 0.00 70 1006.3
20260509141730 59 0 0.0 4.0 0.00 0.00 0.00 71 1006.4
20260509141352 58 132 0.0 4.0 0.00 0.00 0.00 72 1006.4
20260509140920 58 131 0.0 0.0 0.00 0.00 0.00 72 1006.4
20260509140229 58 0 0.0 3.0 0.00 0.00 0.00 72 1006.4
20260509135729 58 129 0.0 3.0 0.00 0.00 0.00 73 1006.4
20260509135230 57 129 0.0 3.0 0.00 0.00 0.00 73 1006.5
20260509134729 57 127 0.0 3.0 0.00 0.00 0.00 74 1006.5
20260509134231 57 127 0.0 3.0 0.00 0.00 0.00 73 1006.6
20260509133729 57 123 0.0 3.0 0.00 0.00 0.00 74 1006.6
20260509133231 56 121 0.0 4.0 0.00 0.00 0.00 74 1006.6
20260509132729 56 121 0.0 4.0 0.00 0.00 0.00 75 1006.7
20260509132230 56 115 0.0 3.0 0.00 0.00 0.00 76 1006.8
20260509131920 55 115 0.0 3.0 0.00 0.00 0.00 76 1006.9
20260509131231 55 110 0.0 1.0 0.00 0.00 0.00 76 1006.9
20260509130729 55 109 0.0 1.0 0.00 0.00 0.00 76 1006.9
20260509130231 54 109 0.0 1.0 0.00 0.00 0.00 76 1007.0
20260509125729 54 108 0.0 1.0 0.00 0.00 0.00 77 1007.0
20260509125229 54 108 0.0 0.0 0.00 0.00 0.00 77 1007.0
20260509124729 53 108 0.0 4.0 0.00 0.01 0.00 77 1007.1
20260509124229 53 107 0.0 4.0 0.00 0.01 0.00 77 1007.2
20260509123730 53 106 0.0 0.0 0.00 0.02 0.00 77 1007.3
20260509123232 52 105 0.0 0.0 0.00 0.02 0.00 77 1007.2
20260509122729 52 105 0.0 0.0 0.00 0.02 0.00 77 1007.2
20260509122229 52 104 0.0 0.0 0.00 0.02 0.00 76 1007.2
20260509121729 51 104 0.0 0.0 0.00 0.02 0.00 76 1007.2
20260509121230 51 104 0.0 0.0 0.00 0.02 0.00 76 1007.3
20260509120734 50 105 0.0 0.0 0.00 0.02 0.00 76 1007.1
20260509120229 49 0 0.0 0.0 0.00 0.02 0.00 76 1007.2
20260509115724 49 105 0.0 0.0 0.00 0.02 0.00 76 1007.3
20260509115217 48 105 0.0 0.0 0.00 0.02 0.00 75 1007.2
20260509114715 48 107 0.0 0.0 0.00 0.02 0.00 75 1007.2
20260509114216 47 0 0.0 0.0 0.00 0.02 0.00 75 1007.3
20260509113211 47 104 0.0 0.0 0.00 0.02 0.00 74 1007.4
20260509112212 47 104 0.0 0.0 0.00 0.02 0.00 74 1007.5
20260509111209 46 104 0.0 1.0 0.00 0.02 0.00 74 1007.4
20260509110912 46 104 0.0 1.0 0.00 0.02 0.00 74 1007.5
20260509110214 46 103 0.0 2.0 0.00 0.02 0.00 74 1007.4
20260509105208 45 103 0.0 1.0 0.00 0.02 0.00 74 1007.2
20260509104203 44 103 0.0 1.0 0.00 0.02 0.00 74 1007.3
20260509103916 44 103 0.0 0.0 0.00 0.02 0.00 74 1007.2
20260509103202 44 103 0.0 0.0 0.00 0.02 0.00 74 1007.2
20260509102202 44 103 0.0 0.0 0.00 0.02 0.00 73 1007.2
20260509101158 44 103 0.0 0.0 0.00 0.02 0.00 73 1007.2
20260509100653 44 103 0.0 0.0 0.00 0.02 0.00 72 1007.1
20260509100147 44 103 0.0 0.0 0.00 0.02 0.00 72 1007.1